Location: Newark
(42.8481°N, 0.4872°E)
Time: 17:28:00
(UTC+00:00)

Vanguard 1 - Pass Details

Date: 27 October 2020
Orbit: 650 x 3833 km, 34.2° (Epoch: 28 November)

Event Time Altitude Azimuth Distance (km) Brightness Sun altitude
Rises 16:01:03 0° 267° (W) 7,970 16.1 8.6°
Reaches altitude 10° 16:06:40 10° 265° (W) 6,917 16.0 7.7°
Maximum altitude 16:28:38 63° 192° (SSW) 3,263 13.0 4.0°
Drops below altitude 10° 16:42:13 10° 115° (ESE) 4,534 13.0 1.7°
Sets 16:45:04 0° 112° (ESE) 5,198 13.3 1.2°
